sat.trackr.live / text

‹ back to catalog

KUIPER-00102

NORAD 65140 · 2025-171J

PAYLOAD ACTIVE UNKNOWN

§ Identity

Operator
Country
US
Launch date
2025-08-11
Launch site
AFETR
Launch vehicle
Mass (kg)
RCS (m²)

External: N2YO · Heavens-Above · Gunter

§ Orbital elements

Epoch: 2026-05-25T01:25:00.585984Z

Period
97.30 min
Inclination
51.8961°
Eccentricity
0.0000326
Mean motion
14.79953308 rev/d
Perigee alt
629.2 km
Apogee alt
629.7 km
Semi-major
7,007.6 km
B*
4.8379e-4
RAAN
175.3591°
Arg perigee
71.1109°
Mean anomaly
288.9889°
Rev number
4,426

§ Raw data

KUIPER-001021 65140U 25171J   26145.05903456  .00003471  00000+0  48379-3 0  99902 65140  51.8961 175.3591 0000326  71.1109 288.9889 14.79953308 44266

JSON: /api/v1/satellites/65140 · /tle

For live sub-satellite position, see the globe view (requires WebGL).

§ Visibility from observer

Set your observer location to see the next 7 days of passes ≥ 10°. The values pass through the URL so the page stays shareable.

No JS? Fill the form by hand. The geolocation button needs JavaScript.